Location: Marcé
(47.5801°N, 0.3280°W)
Time: 04:29:21
(UTC+01:00)

Vanguard 1 - Pass Details

Date: 04 December 2021
Orbit: 652 x 3830 km, 34.2° (Epoch: 21 January)

Event Time Altitude Azimuth Distance (km) Brightness Sun altitude
Exits shadow 04:16:19 52° 203° (SSW) 3,952 12.7 -42.1°
Maximum altitude 04:17:59 53° 191° (S) 3,845 12.7 -41.8°
Drops below altitude 10° 04:33:20 10° 120° (ESE) 5,026 14.1 -39.3°
Sets 04:36:34 0° 115° (ESE) 5,678 14.6 -38.8°
